EST,Max TemperatureF,Mean TemperatureF,Min TemperatureF,Max Dew PointF,MeanDew PointF,Min DewpointF,Max Humidity, Mean Humidity, Min Humidity, Max Sea Level PressureIn, Mean Sea Level PressureIn, Min Sea Level PressureIn, Max VisibilityMiles, Mean VisibilityMiles, Min VisibilityMiles, Max Wind SpeedMPH, Mean Wind SpeedMPH, Max Gust SpeedMPH,PrecipitationIn, CloudCover, Events, WindDirDegrees
2013-2-1,21,15,9,10,4,-1,69,60,51,30.52,30.42,30.22,10,10,9,30,9,36,T,4,Snow,267
2013-2-2,36,28,20,27,21,11,88,74,59,30.35,30.18,30.05,10,6,1,21,7,25,0.07,8,Snow,205
2013-2-3,32,29,25,26,22,16,92,78,63,30.18,30.06,29.99,10,7,2,22,8,28,T,7,Snow,298
2013-2-4,48,34,20,41,28,17,93,71,49,30.17,29.97,29.85,10,9,4,18,7,26,0.10,7,Rain,180
2013-2-5,51,43,35,40,35,30,93,71,48,30.05,29.94,29.88,10,8,3,15,8,20,0.00,7,,271
2013-2-6,45,37,29,31,29,27,92,73,53,30.28,30.20,30.07,8,7,3,10,4,13,0.00,4,,356
2013-2-7,67,51,34,43,34,29,82,58,34,30.17,30.02,29.85,10,8,5,16,6,30,0.00,5,,162
2013-2-8,55,45,34,49,34,26,93,77,61,30.37,30.12,29.85,10,9,3,20,11,26,0.13,8,Rain,308
2013-2-9,47,37,27,27,24,22,78,58,38,30.42,30.34,30.20,10,10,9,12,5,16,0.00,5,,59
2013-2-10,59,48,37,51,38,23,89,65,40,30.18,29.99,29.82,10,10,4,25,11,36,0.18,8,Rain,152
2013-2-11,56,48,40,52,36,26,93,66,38,30.12,29.96,29.82,10,10,10,26,15,36,0.00,3,,240
2013-2-12,51,42,33,29,26,22,75,54,32,30.19,30.08,29.91,10,10,10,10,3,14,0.00,4,,262
2013-2-13,44,38,32,34,30,28,96,77,57,29.96,29.86,29.80,10,6,0,16,7,20,0.07,7,Fog-Rain-Snow,332
2013-2-14,58,47,36,36,34,32,85,63,40,30.02,29.94,29.88,10,10,9,21,10,25,0.00,5,,227
2013-2-15,46,38,29,34,27,18,79,60,40,30.20,30.11,30.03,10,10,10,22,8,26,T,6,Rain,297
2013-2-16,37,30,23,19,14,6,81,57,32,30.19,30.14,30.10,10,10,10,21,9,28,0.00,5,,299
2013-2-17,40,30,20,15,13,11,73,52,30,30.28,30.22,30.17,10,10,10,14,6,21,0.00,2,,288
2013-2-18,63,46,29,42,27,15,71,50,29,30.20,30.00,29.77,10,10,9,31,14,46,0.14,7,Rain,167
2013-2-19,48,37,25,43,28,14,92,66,40,30.22,29.94,29.73,10,9,4,33,20,43,0.18,6,Rain,269
2013-2-20,34,27,20,14,13,11,73,57,41,30.35,30.29,30.23,10,10,10,17,9,33,0.00,5,,314
2013-2-21,39,30,21,30,21,14,77,61,44,30.35,30.19,30.00,10,9,4,20,10,24,0.24,6,Rain,67
2013-2-22,50,42,33,40,36,30,100,83,66,30.02,29.95,29.86,10,7,2,18,8,23,0.13,7,Rain,193
2013-2-23,48,39,29,33,25,21,85,61,37,30.05,30.00,29.93,10,10,7,13,6,16,0.00,4,,287
2013-2-24,50,37,24,25,23,20,81,59,36,30.17,30.10,30.01,10,10,6,9,4,13,0.00,0,,351
2013-2-25,53,42,30,25,23,22,72,51,30,30.14,30.02,29.80,10,10,10,17,10,25,0.00,4,,72
2013-2-26,51,46,41,49,42,23,100,71,41,29.75,29.47,29.37,10,6,1,33,10,38,0.64,8,Rain-Thunderstorm,143
2013-2-27,41,38,34,37,32,28,86,75,64,29.81,29.74,29.60,10,9,2,23,14,30,0.04,8,Rain-Snow,241
2013-2-28,38,36,34,34,31,28,89,86,82,30.01,29.89,29.79,10,8,4,20,12,25,T,8,Snow,268